Location: Bush Observatory
(40.2653°N, 94.3194°W)
Time: 20:03:38
(UTC-05:00)

JAS-2 - Visible Passes

Search period start: 31 October 2014 00:00
Search period end: 09 November 2014 23:00
Orbit: 801 x 1321 km, 98.5° (Epoch: 30 October)

Date Brightness Start Highest point End Pass type
(mag) Time Alt. Az. Time Alt. Az. Time Alt. Az.
31 Oct 12.0 05:42:36 10° NE 05:49:13 29° E 05:55:36 10° SSE visible
31 Oct 12.3 19:24:39 10° SW 19:29:24 22° W 19:34:36 10° NW visible
01 Nov 13.1 04:52:27 10° ENE 04:53:20 10° E 04:54:13 10° E visible
01 Nov 10.7 06:31:55 10° NNE 06:39:45 63° E 06:47:13 10° S visible
02 Nov 12.1 04:37:57 10° NE 04:44:23 27° E 04:50:33 10° SE visible
02 Nov 12.2 18:19:25 10° SW 18:24:28 24° W 18:30:01 10° NW visible
03 Nov 10.7 05:27:10 10° NNE 05:34:57 60° E 05:42:19 10° S visible
04 Nov 12.2 04:33:19 10° NE 04:39:32 25° E 04:45:27 10° SE visible
04 Nov 10.1 06:17:15 10° N 06:25:04 67° WNW 06:32:26 10° SSW visible
04 Nov 12.1 18:14:13 10° SW 18:19:33 26° W 18:25:26 10° NW visible
05 Nov 10.8 05:22:26 10° NNE 05:30:09 56° E 05:37:23 10° S visible
06 Nov 12.2 04:28:43 10° NE 04:34:40 23° E 04:40:20 10° SE visible
06 Nov 10.1 06:12:28 10° N 06:20:18 71° WNW 06:27:37 10° SSW visible
06 Nov 12.0 18:09:03 10° SSW 18:14:38 29° W 18:20:49 10° NNW visible
07 Nov 10.9 05:17:43 10° NNE 05:25:21 53° E 05:32:25 10° S visible
07 Nov 13.0 19:04:10 10° W 19:05:42 11° W 19:07:16 10° WNW visible
08 Nov 12.3 04:24:08 10° NE 04:29:48 22° E 04:35:10 10° SE visible
08 Nov 10.0 06:07:42 10° N 06:15:32 75° WNW 06:22:46 10° SSW visible
08 Nov 11.9 18:03:54 10° SSW 18:09:45 31° W 18:16:11 10° NNW visible
09 Nov 11.0 05:13:01 10° NNE 05:20:32 49° E 05:27:26 10° S visible
09 Nov 12.9 18:58:11 10° WSW 19:00:46 12° W 19:03:26 10° WNW visible
